#timestamp,LO_Frequency,Hit,StdDev 
1623528015.2,286047001.0,N
1623528035.0,286046999.8,N
1623528036.0,286046999.8,N
1623528055.8,286046997.0,N
1623528075.6,286046992.3,N
1623528095.5,286046991.1,N
1623528115.3,286046985.4,Y
1623528135.1,286046985.3,P
1623528155.9,286046984.1,N
1623528175.7,286046985.9,N
1623528195.6,286046990.5,N
1623528215.4,286046988.6,N
1623528235.2,286046988.5,N
1623528255.1,286046989.3,N
1623528256.0,286046989.3,N
1623528275.8,286046990.8,N
1623528295.6,286046989.0,N
1623528315.5,286046986.0,Y
1623528335.3,286046995.5,P
1623528355.2,286046997.0,N
1623528375.0,286046996.6,N
1623528375.9,286046996.6,N
1623528395.7,286046997.2,N
1623528415.6,286046997.1,N
1623528435.4,286047004.2,N
1623528455.3,286047009.1,N
1623528475.1,286047006.7,N
1623528476.0,286047006.7,N
1623528495.8,286047007.8,N
1623528515.7,286047010.5,N
1623528535.5,286047010.8,N
1623528555.3,286047009.0,N
1623528575.2,286047012.3,N
1623528595.0,286047011.9,N
1623528595.9,286047011.9,N
1623528615.8,286047008.6,N
1623528635.6,286047006.0,N
1623528655.4,286047005.2,N
1623528675.3,286047004.9,N
1623528695.1,286047008.9,N
1623528715.9,286047010.5,N
1623528735.7,286047013.1,N
1623528755.5,286047009.3,N
1623528775.4,286047010.9,N
1623528795.2,286047018.7,N
1623528815.0,286047016.6,N
1623528815.9,286047016.6,N
1623528835.8,286047015.2,N
1623528855.6,286047014.3,N
1623528875.5,286047016.2,N
1623528895.3,286047019.5,Y
1623528915.2,286047011.7,P
1623528935.9,286047014.6,P
1623528955.7,286047017.4,P
1623528975.6,286047022.7,Y
1623528995.4,286047011.6,P
1623529015.2,286047014.1,P
1623529035.1,286047015.7,P
1623529036.0,286047015.7,Y
1623529055.8,286047000.2,P
1623529075.7,286047001.3,N
1623529095.5,286046997.8,N
1623529115.3,286046994.8,N
1623529135.2,286046989.0,N
1623529155.0,286046988.5,N
1623529155.9,286046988.5,N
1623529175.8,286046989.6,N
1623529195.6,286046989.7,N
1623529215.4,286046985.4,N
1623529235.3,286046985.9,N
1623529255.1,286046985.6,N
1623529275.8,286046980.6,N
1623529295.7,286046975.7,N
1623529315.5,286046977.2,N
1623529335.4,286046975.4,N
1623529355.2,286046971.3,N
1623529375.0,286046972.1,N
1623529375.9,286046972.1,N
1623529395.8,286046972.3,N
1623529415.6,286046971.0,N
1623529435.5,286046975.0,N
1623529455.3,286046973.0,N
1623529475.1,286046975.3,N
1623529495.9,286046974.9,N
1623529515.7,286046976.8,N
1623529535.6,286046975.3,N
1623529555.4,286046973.1,N
1623529575.2,286046969.7,N
1623529595.1,286046969.0,N
1623529596.0,286046969.0,Y
1623529615.8,286046989.6,P
1623529635.7,286046989.4,N
1623529655.5,286046994.8,N
1623529675.3,286046994.6,N
1623529695.2,286046994.4,N
1623529715.0,286046992.2,N
1623529715.9,286046992.2,N
1623529735.7,286046991.9,N
1623529755.6,286046992.7,N
1623529775.4,286046993.2,N
1623529795.3,286046992.6,N
1623529815.1,286046994.3,N
1623529816.0,286046994.3,N
1623529835.8,286046994.6,N
1623529855.7,286046998.7,N
1623529875.5,286047001.1,N
1623529895.3,286046999.2,N
1623529915.2,286046996.6,N
1623529935.0,286046998.5,N
1623529935.9,286046998.5,N
1623529955.8,286047002.3,N
1623529975.6,286047001.9,N
1623529995.4,286047002.5,N
1623530015.3,286047005.2,N
1623530035.1,286047005.4,N
1623530055.8,286047004.6,N
1623530075.7,286047002.9,N
1623530095.5,286047004.1,N
1623530115.4,286047005.9,N
1623530135.2,286047003.2,N
1623530155.0,286047001.9,N
1623530155.9,286047001.9,N
1623530175.8,286047001.0,N
1623530195.6,286046999.1,N
1623530215.5,286047001.4,N
1623530235.3,286047004.8,N
1623530255.1,286047006.0,N
1623530275.9,286047004.0,N
1623530295.7,286047002.0,N
1623530315.5,286047002.9,N
1623530335.4,286047010.7,N
1623530355.2,286047017.2,Y
1623530375.1,286047019.8,P
1623530376.0,286047019.8,N
1623530395.8,286047019.0,N
1623530415.7,286047023.7,Y
1623530435.5,286047018.8,P
1623530455.3,286047020.4,P
1623530475.2,286047019.2,P
1623530495.0,286047024.3,Y
1623530495.9,286047024.3,P
1623530515.8,286047007.7,N
1623530535.6,286047015.6,N
1623530555.4,286047013.0,N
1623530575.3,286047011.2,N
1623530595.1,286047013.2,N
1623530615.8,286047013.4,N
1623530635.7,286047017.2,Y
1623530655.5,286047002.9,P
1623530675.4,286046999.8,N
1623530695.2,286046997.6,N
1623530715.0,286046994.3,N
1623530715.9,286046994.3,N
1623530735.8,286046999.1,N
1623530755.6,286047001.8,N
1623530775.5,286047002.7,N
1623530795.3,286047006.0,N
1623530815.1,286047005.5,N
1623530835.9,286047002.1,N
1623530855.7,286047000.3,N
1623530875.5,286046999.2,N
1623530895.4,286047001.5,N
1623530915.2,286047005.8,N
1623530935.1,286047001.0,N
1623530936.0,286047001.0,N
1623530955.8,286046996.8,N
1623530975.6,286046995.9,N
1623530995.5,286046992.1,N
1623531015.3,286046994.7,N
1623531035.1,286046988.6,N
1623531055.9,286046990.7,N
1623531075.7,286046992.2,N
1623531095.6,286046994.8,N
1623531115.4,286046994.5,N
1623531135.2,286046997.5,N
1623531155.1,286047000.0,N
1623531156.0,286047000.0,N
1623531175.8,286047005.9,N
1623531195.6,286047010.6,N
1623531215.5,286047011.4,N
1623531235.3,286047009.8,N
1623531255.2,286047006.7,N
1623531275.9,286047003.3,N
1623531295.7,286047002.0,N
1623531315.6,286047002.0,N
1623531335.4,286047003.3,N
1623531355.2,286047008.0,N
1623531375.1,286047012.2,N
1623531376.0,286047012.2,N
1623531395.8,286047011.7,N
1623531415.7,286047011.9,N
1623531435.5,286047013.3,N
1623531455.3,286047018.0,N
1623531475.2,286047018.0,N
1623531495.0,286047023.2,N
1623531495.9,286047023.2,N
1623531515.8,286047026.7,N
1623531535.6,286047031.6,Y
1623531555.4,286047030.0,P
1623531575.3,286047029.1,N
1623531595.1,286047030.2,N
